Tracking 21606 objects as of 24-Oct-2020
HD Live streaming from Space Station
objects crossing your sky now

METEOR 1-13

Track METEOR 1-13 now!
10-day predictions
METEOR 1-13 is classified as:


NORAD ID: 6256
Int'l Code: 1972-085A
Perigee: 853.5 km
Apogee: 887.0 km
Inclination: 81.3 °
Period: 102.2 minutes
Semi major axis: 7241 km
RCS: 4.603 m2 (large)
Launch date: October 26, 1972
Source: Commonwealth of Independent States (former USSR) (CIS)
Launch site: PLESETSK MISSILE AND SPACE COMPLEX (PKMTR)
aabbcc
Your satellite tracking list
Your tracking list is empty




NASA's NSSDC Master Catalog

Two Line Element Set (TLE):
1  6256U 72085A   20297.49894518 -.00000053 +00000-0 -37900-4 0  9992
2  6256 081.2712 351.3651 0023131 246.3083 113.5660 14.08913651464376
Source of the keplerian elements: AFSPC